User: anonymous   Login
Location: Newark
(14.1000°N, 87.2167°W)
Time: 03:12:14
(UTC+00:00)
Language:

N. Korean satellite - Orbit

View from above orbital plane
View from above orbital plane
View from above satellite
View from above satellite

Ground track
Ground track

The orbit data is extracted from the following two-line orbital elements,

1 39026U 12072A   19236.53187829  .00000632  00000-0  25452-4 0  9999
2 39026  97.2128 237.5235 0036692 221.6942 138.1500 15.27932806371800
Epoch (UTC): 24 August 2019 12:45:54
Eccentricity: 0.0036692
inclination: 97.2128°
perigee height: 457 km
apogee height: 507 km
right ascension of ascending node: 237.5235°
argument of perigee: 221.6942°
revolutions per day: 15.27932806
mean anomaly at epoch: 138.1500°
orbit number at epoch: 37180

The dashed part of the orbit path shows where the satellite is in the earth's shadow,  

DLR